Terminal Aerodrome Forecast
Issued by NWS Wilmington, OH

Current Version | Previous Version | Text Only | Print | Product List | Glossary Off
Versions: 1 2 3 4 5 6 7 8 9 10 11 12 13 14 15 16 17 18 19 20 21 22 23 24 25 26 27

529
FTUS41 KILN 231741
TAFILN
TAF
KILN 231741Z 2318/2418 30005KT P6SM SCT050 BKN250
     FM240000 36005KT P6SM SCT100 BKN200
     FM240900 02005KT 5SM BR SCT025 BKN100
     FM241100 02005KT 5SM BR BKN025
     FM241400 05008KT P6SM SCT040=

USA.gov is the U.S. government's official web portal to all federal, state and local government web resources and services.